Stations météo

réclame
Mon MeteoGroup
Spa/La Sauveniere, Belgique (6490): Température de l'air & dewpoint: 20.10.2020 23:00:00 - 26.10.2020 23:00:00 (CET)Spa/La Sauveniere, Belgique (6490): Vitesse du vent & gusts: 20.10.2020 23:00:00 - 26.10.2020 23:00:00 (CET)Spa/La Sauveniere, Belgique (6490): Direction du vent: 20.10.2020 23:00:00 - 26.10.2020 23:00:00 (CET)Spa/La Sauveniere, Belgique (6490): reduced air pressure: 20.10.2020 23:00:00 - 26.10.2020 23:00:00 (CET)Spa/La Sauveniere, Belgique (6490): visibility: 20.10.2020 23:00:00 - 26.10.2020 23:00:00 (CET)
Date & Time tt [°C] td [°C] ff [km/h] ff [knt] fx [km/h] fx [knt] dd ppp [hPa] vv [km]
26.10.2020 23:00:00 - - - - - - - - -
26.10.2020 22:00:00 6,9 5,1 14 8 - - S 1005,5 30
26.10.2020 21:00:00 7,0 4,9 22 12 32 18 S 1004,9 40
26.10.2020 20:00:00 7,0 4,8 18 10 32 18 SSW 1004,8 40
26.10.2020 19:00:00 7,2 4,5 18 10 - - SSW 1004,3 40
26.10.2020 18:00:00 7,7 4,6 18 10 36 19 SSW 1003,9 18
26.10.2020 17:00:00 8,1 4,3 14 8 29 16 S 1003,5 25
26.10.2020 16:00:00 8,5 3,6 14 8 - - SSW 1003,7 45
26.10.2020 15:00:00 8,7 3,0 18 10 43 23 SW 1003,4 40
26.10.2020 14:00:00 8,8 3,5 22 12 40 21 SW 1002,8 35
26.10.2020 13:00:00 7,8 3,5 22 12 - - SW 1003,3 40
26.10.2020 12:00:00 7,4 4,4 18 10 47 25 WSW 1003,4 40
26.10.2020 11:00:00 6,9 4,0 18 10 40 21 SW 1003,7 40
26.10.2020 10:00:00 7,1 5,0 18 10 - - SW 1003,8 40
26.10.2020 09:00:00 6,6 5,1 11 6 32 18 SSW 1003,1 45
26.10.2020 08:00:00 6,6 5,2 14 8 32 18 SSW 1002,8 45
26.10.2020 07:00:00 6,9 5,8 11 6 - - S 1002,1 45
26.10.2020 06:00:00 7,3 6,1 11 6 22 12 SSW 1002,0 45
26.10.2020 05:00:00 7,3 6,3 11 6 25 14 S 1002,1 45
26.10.2020 04:00:00 7,5 6,6 14 8 - - SSW 1002,5 13
26.10.2020 03:00:00 7,4 6,7 11 6 25 14 SSW 1002,4 45
26.10.2020 02:00:00 7,6 6,7 11 6 25 14 S 1001,5 45
26.10.2020 01:00:00 8,3 7,3 14 8 - - SSW 1002,4 26
26.10.2020 00:00:00 8,3 7,3 14 8 29 16 S 1002,5 28
25.10.2020 23:00:00 8,1 7,1 14 8 25 14 S 1002,7 16
25.10.2020 22:00:00 8,2 7,2 14 8 - - S 1003,0 45
25.10.2020 21:00:00 8,5 7,8 14 8 29 16 SSW 1003,2 18
25.10.2020 20:00:00 8,6 7,8 7 4 25 14 S 1003,6 50
25.10.2020 19:00:00 8,8 8,1 14 8 - - SSW 1003,8 30
25.10.2020 18:00:00 8,9 8,2 11 6 29 16 S 1003,1 28
25.10.2020 17:00:00 9,1 8,3 14 8 25 14 S 1003,2 35
25.10.2020 16:00:00 9,6 8,8 14 8 - - S 1002,9 35
25.10.2020 15:00:00 9,6 8,9 18 10 36 19 S 1002,8 35
25.10.2020 14:00:00 9,6 8,7 22 12 40 21 S 1003,2 16
25.10.2020 13:00:00 9,6 8,9 14 8 - - SSW 1004,1 6
25.10.2020 12:00:00 9,7 9,0 11 6 43 23 SSW 1004,6 17
25.10.2020 11:00:00 10,4 8,3 25 14 43 23 S 1003,9 35
25.10.2020 10:00:00 10,3 8,0 22 12 - - S 1004,0 45
25.10.2020 09:00:00 9,9 8,2 22 12 47 25 SSW 1005,2 7
25.10.2020 08:00:00 10,6 7,6 29 16 50 27 S 1004,4 45
25.10.2020 07:00:00 10,7 7,8 29 16 - - SSW 1004,7 50
25.10.2020 06:00:00 10,4 8,4 29 16 47 25 S 1004,9 45
25.10.2020 05:00:00 10,5 9,2 29 16 47 25 S 1005,0 45
25.10.2020 04:00:00 10,5 9,4 29 16 - - S 1006,3 45
25.10.2020 03:00:00 11,1 9,0 25 14 54 29 S 1006,7 35
25.10.2020 02:00:00 11,4 9,4 32 18 50 27 S 1007,0 45
25.10.2020 01:00:00 - - - - - - - - -
25.10.2020 00:00:00 11,6 9,7 25 14 58 31 SSW 1008,6 45
24.10.2020 23:00:00 11,5 9,9 29 16 50 27 S 1008,4 35
24.10.2020 22:00:00 11,8 9,5 25 14 - - SSW 1009,2 40
24.10.2020 21:00:00 11,5 10,3 18 10 36 19 SSW 1009,8 30
24.10.2020 20:00:00 11,6 10,0 22 12 36 19 S 1010,3 35
24.10.2020 19:00:00 11,4 10,3 18 10 - - SSW 1011,3 35
24.10.2020 18:00:00 11,1 9,8 18 10 40 21 S 1011,7 50
24.10.2020 17:00:00 11,3 9,8 18 10 36 19 S 1011,7 30
24.10.2020 16:00:00 11,4 10,2 22 12 - - SSW 1012,3 40
24.10.2020 15:00:00 11,5 10,0 22 12 40 21 SSW 1012,7 40
24.10.2020 14:00:00 10,7 9,9 25 14 40 21 S 1013,3 17
24.10.2020 13:00:00 11,1 9,1 25 14 - - S 1013,6 40
24.10.2020 12:00:00 10,7 8,5 18 10 40 21 SW 1014,5 40
24.10.2020 11:00:00 9,8 8,6 18 10 36 19 SW 1014,6 20
24.10.2020 10:00:00 9,6 8,3 18 10 - - SSW 1014,3 27
24.10.2020 09:00:00 9,5 7,5 18 10 32 18 S 1014,4 45
24.10.2020 08:00:00 9,8 8,2 18 10 32 18 SW 1014,1 40
24.10.2020 07:00:00 10,1 9,0 14 8 - - SSW 1013,7 24
24.10.2020 06:00:00 9,9 8,9 14 8 29 16 SW 1014,3 23
24.10.2020 05:00:00 9,8 8,8 22 12 36 19 SW 1014,2 25
24.10.2020 04:00:00 10,1 9,1 18 10 - - SW 1014,2 27
24.10.2020 03:00:00 10,4 9,6 18 10 40 21 SW 1014,2 14
24.10.2020 02:00:00 10,6 9,7 18 10 32 18 SW 1014,2 13
24.10.2020 01:00:00 10,9 10,1 18 10 - - SW 1014,0 14
24.10.2020 00:00:00 10,9 10,3 14 8 29 16 SW 1014,2 9
23.10.2020 23:00:00 11,0 9,7 11 6 29 16 SSW 1014,3 40
23.10.2020 22:00:00 10,9 9,8 14 8 - - SSW 1013,7 30
23.10.2020 21:00:00 11,2 9,9 14 8 22 12 SW 1013,1 28
23.10.2020 20:00:00 11,6 10,3 14 8 22 12 SW 1012,6 30
23.10.2020 19:00:00 11,8 11,1 14 8 - - WSW 1012,5 35
23.10.2020 18:00:00 12,1 11,4 14 8 22 12 SW 1011,9 45
23.10.2020 17:00:00 12,6 11,6 11 6 22 12 SW 1011,5 40
23.10.2020 16:00:00 12,6 11,5 14 8 - - SW 1011,2 45
23.10.2020 15:00:00 12,6 11,7 11 6 25 14 SW 1011,0 45
23.10.2020 14:00:00 12,7 11,8 14 8 25 14 SW 1011,1 5
23.10.2020 13:00:00 13,8 12,5 11 6 - - SW 1010,9 35
23.10.2020 12:00:00 13,0 11,8 11 6 25 14 SW 1011,5 14
23.10.2020 11:00:00 12,7 11,4 11 6 22 12 S 1011,6 40
23.10.2020 10:00:00 12,5 11,2 11 6 - - SSW 1011,9 45
23.10.2020 09:00:00 12,2 11,2 11 6 25 14 SSW 1011,9 45
23.10.2020 08:00:00 12,4 11,5 14 8 25 14 SW 1011,6 20
23.10.2020 07:00:00 12,4 11,8 11 6 - - SSW 1011,2 45
23.10.2020 06:00:00 12,4 11,4 14 8 22 12 S 1011,4 28
23.10.2020 05:00:00 12,5 11,7 14 8 22 12 S 1011,8 12
23.10.2020 04:00:00 12,9 11,8 11 6 - - SSW 1012,3 26
23.10.2020 03:00:00 13,0 11,8 11 6 22 12 SSW 1012,7 29
23.10.2020 02:00:00 13,1 11,8 11 6 29 16 SSW 1013,1 26
23.10.2020 01:00:00 12,9 12,0 11 6 - - SSW 1013,4 23
23.10.2020 00:00:00 13,1 11,8 14 8 22 12 S 1013,2 30
22.10.2020 23:00:00 12,9 11,7 11 6 18 10 S 1013,4 30
22.10.2020 22:00:00 12,7 11,5 7 4 - - S 1013,6 28
22.10.2020 21:00:00 13,4 12,0 14 8 29 16 SSW 1013,4 30
22.10.2020 20:00:00 13,5 12,1 18 10 29 16 S 1013,0 30
22.10.2020 19:00:00 13,6 12,0 14 8 - - S 1013,1 26
22.10.2020 18:00:00 14,0 12,8 14 8 29 16 S 1012,6 11
22.10.2020 17:00:00 15,6 11,5 18 10 36 19 SSW 1011,9 30
22.10.2020 16:00:00 16,2 11,8 18 10 - - SSW 1011,8 30
22.10.2020 15:00:00 16,3 11,5 18 10 40 21 SW 1011,8 30
22.10.2020 14:00:00 16,2 10,8 25 14 40 21 SSW 1012,1 28
22.10.2020 13:00:00 15,8 11,6 18 10 - - SSW 1012,5 40
22.10.2020 12:00:00 15,6 11,3 18 10 43 23 SSW 1012,7 35
22.10.2020 11:00:00 14,5 11,4 22 12 40 21 SSW 1012,9 40
22.10.2020 10:00:00 13,2 11,2 14 8 - - SSW 1013,5 40
22.10.2020 09:00:00 12,7 10,9 18 10 29 16 SSW 1013,4 45
22.10.2020 08:00:00 12,4 11,4 14 8 29 16 SSW 1012,3 45
22.10.2020 07:00:00 12,7 11,9 14 8 - - SSW 1011,7 35
22.10.2020 06:00:00 13,0 11,5 18 10 29 16 S 1011,6 40
22.10.2020 05:00:00 12,9 11,3 14 8 25 14 S 1011,3 40
22.10.2020 04:00:00 13,0 11,2 14 8 - - SSW 1011,5 35
22.10.2020 03:00:00 12,7 11,1 14 8 25 14 S 1011,2 35
22.10.2020 02:00:00 13,2 11,2 14 8 25 14 SSW 1011,0 40
22.10.2020 01:00:00 13,8 11,1 14 8 - - SSW 1010,5 40
22.10.2020 00:00:00 14,6 10,7 22 12 43 23 SW 1009,7 45
21.10.2020 23:00:00 14,7 10,6 22 12 40 21 SW 1009,3 45
21.10.2020 22:00:00 15,5 10,9 22 12 - - SW 1008,8 40
21.10.2020 21:00:00 15,4 11,4 22 12 36 19 SSW 1007,8 30
21.10.2020 20:00:00 15,7 11,4 18 10 47 25 SSW 1007,2 35
21.10.2020 19:00:00 16,0 10,8 22 12 - - SSW 1006,1 40
21.10.2020 18:00:00 16,3 10,7 25 14 58 31 SSW 1005,2 40
21.10.2020 17:00:00 17,2 10,5 29 16 54 29 SW 1004,1 35
21.10.2020 16:00:00 17,3 10,3 32 18 - - SSW 1003,3 30
21.10.2020 15:00:00 17,5 9,9 29 16 58 31 SW 1002,8 35
21.10.2020 14:00:00 16,8 9,2 29 16 50 27 SSW 1002,8 30
21.10.2020 13:00:00 15,9 8,7 32 18 - - S 1003,0 30
21.10.2020 12:00:00 14,5 8,0 29 16 76 41 S 1003,6 40
21.10.2020 11:00:00 13,8 7,7 32 18 61 33 S 1004,1 40
21.10.2020 10:00:00 11,6 7,5 25 14 - - S 1005,0 45
21.10.2020 09:00:00 10,7 7,3 32 18 58 31 S 1005,1 16
21.10.2020 08:00:00 10,1 8,4 29 16 50 27 S 1005,0 45
21.10.2020 07:00:00 9,6 9,4 32 18 - - S 1005,3 6
21.10.2020 06:00:00 9,9 8,6 32 18 58 31 S 1005,2 18
21.10.2020 05:00:00 9,8 8,6 29 16 43 23 SSE 1004,8 30
21.10.2020 04:00:00 9,8 7,9 22 12 - - S 1006,2 26
21.10.2020 03:00:00 10,1 9,2 22 12 36 19 S 1006,5 26
21.10.2020 02:00:00 10,3 9,4 18 10 32 18 SSE 1007,4 13
21.10.2020 01:00:00 10,7 9,4 22 12 - - SSE 1007,8 9
21.10.2020 00:00:00 10,9 10,2 25 14 36 19 SSE 1008,3 9
20.10.2020 23:00:00 11,1 10,3 22 12 32 18 SSE 1009,0 10

tt = Température de l'air
td = dewpoint
ff = Vitesse du vent
fx = gusts
dd = Direction du vent
ppp = reduced air pressure
vv = visibility

stations d'obs. à proximité